Meath Environmental Platform

Observations

Time Sensor AQI SAQ Temp °C Hum % Pres Pa CO μg/m³ H₂S μg/m³ NO μg/m³ NO₂ μg/m³ O₃ μg/m³ SO₂ μg/m³ CO₂e PPM VOC PPM PM1 μg/m³ PM2.5 μg/m³ PM4 μg/m³ PM10 μg/m³ TPS µm
Wednesday 12 August 2026
14:56 Trim Patrick St 3 36.6 33 69,715 0 0 0.08 12.22 109.87 22.86 4.57 10.7 11.77
14:55 Trim Market St 2 39 28 66,949 0 0 0 13.3 73.36 2.11 2.14 5.03 5.53
14:55 Trim Patrick St 3 36.6 32 69,711 0 0 0.09 12.32 108.71 21.76 5.43 12.32 13.55
14:54 Trim Patrick St 3 36.6 32 69,705 0 0 0.09 9.54 76.27 20.71 3.71 9.95 10.95
14:53 Trim Patrick St 3 36.6 33 69,697 0 0 0.08 10.3 75.67 21.24 4.57 10.7 11.77
14:52 Trim Patrick St 3 36.7 33 69,687 0 0 0.07 12.77 114.84 20.99 4.57 10.68 11.75
14:51 Trim Market St 2 39 28 66,932 0 0 0 13.42 80.19 1.21 1.43 4.48 4.93
14:51 Trim Patrick St 3 36.6 33 69,703 0 0 0.09 12.72 88.61 20.53 4.57 10.7 11.77
14:50 Trim Market St 2 38.9 28 66,933 0 0 0 13.29 78.75 1.34 0.71 4.47 4.92
14:50 Trim Patrick St 2 36.6 33 69,693 0 0 0.09 12.27 80.13 20.63 4.57 11.51 12.66
14:49 Trim Patrick St 2 36.5 33 69,683 0 0 0.09 12.7 67.59 19.22 5.43 11.5 12.65
14:48 Trim Market St 2 38.8 29 66,904 0 0 0 13.79 71.76 0.1 1.43 5 5.5
14:48 Trim Patrick St 3 36.4 34 69,663 0 0 0.1 12.74 90.67 20.81 4.57 10.65 11.71
14:47 Trim Patrick St 3 36.3 34 69,669 0 0 0.11 12.71 80.37 19.9 3.71 10.63 11.69
14:46 Trim Patrick St 2 36.2 34 69,652 0 0 0.11 12.69 97.31 20.61 5.43 10.6 11.66
14:45 Trim Patrick St 3 36 34 69,658 0 0 0.14 12.62 107.91 20.38 5.43 11.41 12.55
14:44 Trim Patrick St 3 35.9 34 69,665 0 0 0.16 12.91 85.28 19.23 4.57 11.43 12.57
14:43 Trim Patrick St 2 35.7 34 69,648 0 0 0.18 12.49 87.46 19.56 4.57 9.83 10.82
14:42 Trim Patrick St 2 35.6 34 69,626 0 0 0.19 12.47 78.03 19.89 4.57 11.41 12.55
14:41 Trim Market St 2 37.5 30 66,741 0 0 0.05 13.34 75.6 0.2 2.14 4.92 5.41